Chehalis, WA
on Thursday, December 27, 2012

Thursday
Previous Day Next Day
Daily Summary
 ActualAverage (KOLM)Record (KOLM)
Temperature
Mean Temperature °F 38°F  
Max Temperature 48°F 44°F 58°F (1980)
Min Temperature 39°F 33°F 16°F (1977)
Degree Days
Heating Degree Days 22 27  
Month to date heating degree days 718  
Since 1 July heating degree days 2163  
Cooling Degree Days 0 0  
Month to date cooling degree days 0  
Year to date cooling degree days 106  
Moisture
Dew Point 39°F   
Average Humidity 88    
Maximum Humidity 93    
Minimum Humidity 62    
Precipitation
Precipitation 0.02 in 0.23 in 2.94 in (1949)
Month to date precipitation 6.56  
Year to date precipitation 49.10  
Wind
Wind Speed 6 mph   
Max Wind Speed 8 mph   
Max Gust Speed mph   
Visibility 9 miles   
Events Rain   

Key: T is trace of precipitation, MM is missing value
Source: NWS Daily Summary
Time(PST)TemperatureDew PointHumidity Pressure Visibility Wind DirectionWind SpeedGust SpeedPrecipitationEvents Conditions
12:15 AM 41.0°F 39.2°F 93% 29.99 in 10.0 miles South 8.1 mph - N/A   Overcast
12:35 AM 41.0°F 39.2°F 93% 29.99 in 10.0 miles SSW 8.1 mph - N/A   Overcast
1:15 AM 41.0°F 39.2°F 93% 30.00 in 10.0 miles SSW 5.8 mph - N/A   Overcast
1:35 AM 41.0°F 39.2°F 93% 30.01 in 10.0 miles South 3.5 mph - N/A Rain Light Rain
1:55 AM 41.0°F 39.2°F 93% 30.02 in 10.0 miles South 6.9 mph - N/A   Overcast
2:15 AM 41.0°F 39.2°F 93% 30.03 in 9.0 miles South 4.6 mph - 0.01 in Rain Light Rain
2:35 AM 41.0°F 39.2°F 93% 30.03 in 10.0 miles South 5.8 mph - 0.01 in   Overcast
2:55 AM 41.0°F 39.2°F 93% 30.03 in 10.0 miles SSW 5.8 mph - 0.01 in   Overcast
3:15 AM 41.0°F 39.2°F 93% 30.04 in 10.0 miles South 8.1 mph - N/A   Overcast
3:35 AM 41.0°F 39.2°F 93% 30.05 in 8.0 miles South 8.1 mph - N/A   Mostly Cloudy
3:55 AM 41.0°F 39.2°F 93% 30.05 in 3.0 miles South 5.8 mph - N/A   Overcast
4:15 AM 41.0°F 39.2°F 93% 30.05 in 10.0 miles South 8.1 mph - N/A   Overcast
4:35 AM 41.0°F 39.2°F 93% 30.05 in 10.0 miles South 6.9 mph - N/A   Overcast
5:15 AM 41.0°F 39.2°F 93% 30.06 in 7.0 miles South 4.6 mph - N/A   Overcast
5:35 AM 41.0°F 39.2°F 93% 30.07 in 10.0 miles SSW 5.8 mph - N/A   Overcast
5:55 AM 41.0°F 39.2°F 93% 30.07 in 9.0 miles South 5.8 mph - N/A   Overcast
6:15 AM 41.0°F 39.2°F 93% 30.08 in 10.0 miles South 5.8 mph - N/A   Overcast
6:35 AM 41.0°F 39.2°F 93% 30.08 in 9.0 miles South 5.8 mph - N/A   Overcast
7:15 AM 41.0°F 39.2°F 93% 30.10 in 7.0 miles South 5.8 mph - N/A   Mostly Cloudy
7:35 AM 41.0°F 39.2°F 93% 30.10 in 9.0 miles South 6.9 mph - N/A   Overcast
7:55 AM 41.0°F 39.2°F 93% 30.11 in 10.0 miles South 6.9 mph - N/A   Overcast
8:15 AM 41.0°F 39.2°F 93% 30.11 in 10.0 miles SSW 5.8 mph - N/A   Overcast
8:35 AM 41.0°F 39.2°F 93% 30.12 in 10.0 miles South 6.9 mph - N/A   Overcast
8:55 AM 41.0°F 39.2°F 93% 30.13 in 10.0 miles SSE 5.8 mph - N/A   Mostly Cloudy
9:15 AM 41.0°F 39.2°F 93% 30.13 in 10.0 miles South 5.8 mph - N/A   Overcast
9:35 AM 41.0°F 39.2°F 93% 30.14 in 10.0 miles South 5.8 mph - N/A   Overcast
9:55 AM 41.0°F 39.2°F 93% 30.14 in 10.0 miles South 6.9 mph - N/A   Overcast
10:15 AM 41.0°F 39.2°F 93% 30.15 in 10.0 miles South 8.1 mph - N/A   Overcast
10:35 AM 44.6°F 39.2°F 81% 30.15 in 10.0 miles South 8.1 mph - N/A   Mostly Cloudy
10:55 AM 44.6°F 39.2°F 81% 30.16 in 10.0 miles South 6.9 mph - N/A   Overcast
11:15 AM 44.6°F 39.2°F 81% 30.16 in 10.0 miles SSE 5.8 mph - N/A   Overcast
11:35 AM 44.6°F 39.2°F 81% 30.17 in 10.0 miles SSE 3.5 mph - N/A   Overcast
11:55 AM 46.4°F 41.0°F 81% 30.17 in 10.0 miles Calm Calm - N/A   Overcast
12:15 PM 46.4°F 41.0°F 81% 30.16 in 10.0 miles Calm Calm - N/A   Overcast
12:35 PM 46.4°F 39.2°F 76% 30.16 in 7.0 miles South 5.8 mph - N/A   Overcast
12:55 PM 48.2°F 37.4°F 66% 30.16 in 10.0 miles SSW 5.8 mph - N/A   Mostly Cloudy
1:15 PM 48.2°F 35.6°F 62% 30.15 in 10.0 miles SSW 4.6 mph - N/A   Scattered Clouds
1:35 PM 48.2°F 37.4°F 66% 30.15 in 10.0 miles SSW 4.6 mph - N/A   Mostly Cloudy
1:55 PM 46.4°F 37.4°F 71% 30.16 in 7.0 miles Calm Calm - N/A Rain Light Rain
2:15 PM 42.8°F 37.4°F 81% 30.16 in 5.0 miles SW 6.9 mph - 0.01 in Rain Light Rain
2:35 PM 44.6°F 37.4°F 76% 30.16 in 7.0 miles SSW 3.5 mph - 0.01 in   Scattered Clouds
2:55 PM 44.6°F 39.2°F 81% 30.16 in 7.0 miles SSW 4.6 mph - 0.01 in   Partly Cloudy
3:15 PM 46.4°F 39.2°F 76% 30.16 in 6.0 miles South 6.9 mph - N/A   Haze
3:35 PM 46.4°F 39.2°F 76% 30.16 in 5.0 miles SSE 6.9 mph - N/A   Haze
3:55 PM 44.6°F 39.2°F 81% 30.16 in 5.0 miles SSE 6.9 mph - N/A   Haze
4:15 PM 42.8°F 39.2°F 87% 30.16 in 5.0 miles SSE 8.1 mph - N/A   Clear
4:35 PM 41.0°F 39.2°F 93% 30.16 in 8.0 miles SSE 6.9 mph - N/A   Clear
5:15 PM 41.0°F 39.2°F 93% 30.17 in 7.0 miles SSW 3.5 mph - N/A   Overcast
5:35 PM 41.0°F 39.2°F 93% 30.18 in 10.0 miles SSW 5.8 mph - N/A   Overcast
6:15 PM 41.0°F 39.2°F 93% 30.18 in 10.0 miles SSW 4.6 mph - N/A   Overcast
6:35 PM 41.0°F 39.2°F 93% 30.17 in 10.0 miles SSW 4.6 mph - N/A   Overcast
7:15 PM 41.0°F 39.2°F 93% 30.17 in 5.0 miles SSW 5.8 mph - N/A Rain Light Rain
7:35 PM 41.0°F 39.2°F 93% 30.17 in 9.0 miles SSE 4.6 mph - N/A   Overcast
7:55 PM 41.0°F 39.2°F 93% 30.17 in 9.0 miles South 4.6 mph - N/A   Overcast
8:15 PM 41.0°F 39.2°F 93% 30.17 in 5.0 miles SSE 5.8 mph - N/A   Overcast
8:55 PM 39.2°F 37.4°F 93% 30.16 in 8.0 miles South 6.9 mph - N/A   Mostly Cloudy
9:15 PM 39.2°F 37.4°F 93% 30.16 in 10.0 miles SSW 5.8 mph - N/A   Mostly Cloudy
9:35 PM 39.2°F 37.4°F 93% 30.17 in 7.0 miles SSW 6.9 mph - N/A   Overcast
9:55 PM 39.2°F 37.4°F 93% 30.17 in 10.0 miles South 6.9 mph - N/A   Overcast
10:15 PM 39.2°F 37.4°F 93% 30.17 in 10.0 miles South 8.1 mph - N/A   Overcast
10:35 PM 39.2°F 35.6°F 87% 30.17 in 8.0 miles SSW 5.8 mph - N/A   Overcast
10:55 PM 39.2°F 35.6°F 87% 30.17 in 10.0 miles SSW 5.8 mph - N/A   Overcast
11:15 PM 39.2°F 37.4°F 93% 30.17 in 10.0 miles SSW 4.6 mph - N/A   Overcast
11:35 PM 39.2°F 37.4°F 93% 30.17 in 10.0 miles SSW 4.6 mph - N/A   Overcast
11:55 PM 39.2°F 37.4°F 93% 30.17 in 10.0 miles South 4.6 mph - N/A   Overcast
Moon Phase
Dec. 27 Dec. 28 Jan. 04 Jan. 11 Jan. 18
Sunrise:07:55 AM (PST) Moon Rise:04:21 PM (PST)12/27
Sunset:04:30 PM (PST) Moon Set:07:09 AM (PST)12/27

Copyright © 2014 The Weather Underground, Inc.